FW3222 Weather Reports


Display with metric or nautical units.
time (UTC)temp
F
wind
direction
speed
MPH
gust
MPH
rain 1hr
in
rain 24hr
in
rain mn
in
humidity
%
barometer
mb
20260905191146 80 5 2.0 10.0 0.00 0.00 0.00 46 1011.7
20260905190420 81 346 2.0 7.0 0.00 0.00 0.00 46 1011.6
20260905190112 82 28 2.0 7.0 0.00 0.00 0.00 44 1011.7
20260905185803 82 341 1.0 7.0 0.00 0.00 0.00 48 1011.6
20260905185040 81 206 1.0 7.0 0.00 0.00 0.00 48 1011.7
20260905184735 81 159 1.0 7.0 0.00 0.00 0.00 49 1011.7
20260905184437 80 270 1.0 7.0 0.00 0.00 0.00 49 1011.8
20260905183719 80 88 0.0 4.0 0.00 0.00 0.00 49 1011.8
20260905183421 80 13 1.0 9.0 0.00 0.00 0.00 47 1011.8
20260905182657 81 76 1.0 9.0 0.00 0.00 0.00 46 1011.9
20260905181921 82 29 2.0 9.0 0.00 0.00 0.00 45 1011.9
20260905181615 82 38 2.0 9.0 0.00 0.00 0.00 43 1011.9
20260905180839 82 223 2.0 8.0 0.00 0.00 0.00 53 1012.0
20260905180531 81 329 2.0 8.0 0.00 0.00 0.00 49 1012.1
20260905180223 81 344 3.0 8.0 0.00 0.00 0.00 48 1012.1
20260905175925 80 301 3.0 8.0 0.00 0.00 0.00 47 1012.2
20260905175624 80 275 3.0 8.0 0.00 0.00 0.00 49 1012.2
20260905174857 80 5 2.0 8.0 0.00 0.00 0.00 50 1012.2
20260905174556 80 14 2.0 8.0 0.00 0.00 0.00 49 1012.2
20260905174254 80 68 2.0 8.0 0.00 0.00 0.00 47 1012.4
20260905173954 80 15 1.0 6.0 0.00 0.00 0.00 49 1012.4
20260905173658 80 116 1.0 6.0 0.00 0.00 0.00 46 1012.4
20260905173349 81 30 1.0 6.0 0.00 0.00 0.00 49 1012.5
20260905173038 81 98 1.0 6.0 0.00 0.00 0.00 52 1012.5
20260905172738 81 223 1.0 6.0 0.00 0.00 0.00 48 1012.5
20260905172435 80 284 2.0 7.0 0.00 0.00 0.00 49 1012.5
20260905172122 80 265 2.0 7.0 0.00 0.00 0.00 49 1012.5
20260905171817 80 5 2.0 7.0 0.00 0.00 0.00 49 1012.5
20260905171518 80 46 2.0 7.0 0.00 0.00 0.00 48 1012.6
20260905171220 80 75 2.0 7.0 0.00 0.00 0.00 48 1012.7
20260905170911 79 319 1.0 7.0 0.00 0.00 0.00 47 1012.7
20260905170604 80 327 1.0 7.0 0.00 0.00 0.00 49 1012.7
20260905170254 80 44 1.0 7.0 0.00 0.00 0.00 49 1012.9
20260905165952 79 9 1.0 7.0 0.00 0.00 0.00 49 1012.8
20260905165234 79 355 3.0 7.0 0.00 0.00 0.00 50 1013.0
20260905164932 79 282 2.0 7.0 0.00 0.00 0.00 49 1013.0
20260905164632 79 323 2.0 7.0 0.00 0.00 0.00 51 1013.1
20260905164320 78 335 2.0 7.0 0.00 0.00 0.00 52 1013.2
20260905164016 78 13 2.0 7.0 0.00 0.00 0.00 51 1013.1
20260905163710 78 355 2.0 7.0 0.00 0.00 0.00 50 1013.2
20260905162948 78 89 1.0 8.0 0.00 0.00 0.00 50 1013.0
20260905162643 78 134 1.0 8.0 0.00 0.00 0.00 51 1013.2
20260905162336 78 0 1.0 8.0 0.00 0.00 0.00 49 1013.2
20260905162035 78 215 2.0 8.0 0.00 0.00 0.00 50 1013.2
20260905161730 78 25 2.0 8.0 0.00 0.00 0.00 50 1013.3
20260905161419 78 291 2.0 8.0 0.00 0.00 0.00 50 1013.4
20260905161112 78 355 2.0 8.0 0.00 0.00 0.00 50 1013.4
20260905160814 77 314 2.0 8.0 0.00 0.00 0.00 52 1013.4
20260905160514 77 49 2.0 8.0 0.00 0.00 0.00 53 1013.5
20260905160206 77 217 1.0 8.0 0.00 0.00 0.00 53 1013.6
20260905155447 77 93 1.0 4.0 0.00 0.00 0.00 51 1013.5
20260905155141 77 43 1.0 4.0 0.00 0.00 0.00 54 1013.5
20260905154842 76 0 0.0 4.0 0.00 0.00 0.00 54 1013.5
20260905154543 77 63 0.0 3.0 0.00 0.00 0.00 54 1013.7
20260905154233 76 294 0.0 3.0 0.00 0.00 0.00 54 1013.7
20260905153931 76 210 0.0 3.0 0.00 0.00 0.00 54 1013.7
20260905152739 76 185 1.0 6.0 0.00 0.00 0.00 53 1013.6
20260905152440 76 350 1.0 6.0 0.00 0.00 0.00 53 1013.6
20260905152139 76 273 1.0 6.0 0.00 0.00 0.00 53 1013.6
20260905151832 76 277 1.0 6.0 0.00 0.00 0.00 52 1013.6
20260905151536 76 58 1.0 6.0 0.00 0.00 0.00 52 1013.7
20260905151226 75 69 1.0 6.0 0.00 0.00 0.00 53 1013.7
20260905150922 75 65 1.0 5.0 0.00 0.00 0.00 55 1013.6
20260905150624 75 67 1.0 4.0 0.00 0.00 0.00 55 1013.7
20260905150324 75 42 1.0 4.0 0.00 0.00 0.00 54 1013.6
20260905150019 75 66 1.0 4.0 0.00 0.00 0.00 53 1013.6
20260905145714 75 299 0.0 4.0 0.00 0.00 0.00 56 1013.7
20260905145406 75 32 0.0 3.0 0.00 0.00 0.00 55 1013.7
20260905145106 75 288 1.0 0.0 0.00 0.00 0.00 57 1013.6
20260905144755 75 268 1.0 5.0 0.00 0.00 0.00 55 1013.6
20260905144449 74 34 2.0 4.0 0.00 0.00 0.00 56 1013.5
20260905143710 74 9 1.0 4.0 0.00 0.00 0.00 55 1013.4
20260905143359 74 12 1.0 3.0 0.00 0.00 0.00 54 1013.4
20260905142632 74 28 0.0 1.0 0.00 0.00 0.00 57 1013.4
20260905141915 74 85 0.0 7.0 0.00 0.00 0.00 58 1013.3
20260905141615 74 82 1.0 7.0 0.00 0.00 0.00 58 1013.2
20260905140845 73 95 1.0 7.0 0.00 0.00 0.00 57 1013.2
20260905140544 73 23 1.0 7.0 0.00 0.00 0.00 57 1013.0
20260905140245 73 355 1.0 7.0 0.00 0.00 0.00 56 1013.0
20260905135944 73 351 2.0 5.0 0.00 0.00 0.00 58 1013.1
20260905135645 73 43 1.0 5.0 0.00 0.00 0.00 58 1013.0
20260905135344 73 285 1.0 5.0 0.00 0.00 0.00 57 1012.9
20260905135045 73 28 1.0 3.0 0.00 0.00 0.00 58 1012.9
20260905134731 73 90 1.0 3.0 0.00 0.00 0.00 58 1012.8
20260905133546 72 331 0.0 3.0 0.00 0.00 0.00 58 1012.9
20260905133248 72 344 1.0 3.0 0.00 0.00 0.00 60 1013.1
20260905132938 72 327 0.0 3.0 0.00 0.00 0.00 59 1013.1
20260905132632 72 40 0.0 3.0 0.00 0.00 0.00 58 1013.3
20260905132325 72 51 0.0 2.0 0.00 0.00 0.00 59 1013.2
20260905132023 72 51 0.0 2.0 0.00 0.00 0.00 60 1013.2
20260905131715 72 239 0.0 2.0 0.00 0.00 0.00 59 1013.3
20260905131413 72 355 0.0 0.0 0.00 0.00 0.00 60 1013.2
20260905130648 72 355 0.0 5.0 0.00 0.00 0.00 60 1013.2
20260905130353 72 305 0.0 5.0 0.00 0.00 0.00 60 1013.1
20260905130049 72 84 1.0 5.0 0.00 0.00 0.00 60 1013.0
20260905125743 72 111 1.0 5.0 0.00 0.00 0.00 60 1013.1
20260905125435 71 96 1.0 5.0 0.00 0.00 0.00 60 1013.0
20260905125127 71 98 0.0 5.0 0.00 0.00 0.00 60 1012.8
20260905124404 71 48 0.0 1.0 0.00 0.00 0.00 61 1013.0
20260905124108 71 42 0.0 0.0 0.00 0.00 0.00 60 1012.8
20260905123346 71 74 0.0 0.0 0.00 0.00 0.00 60 1012.8
20260905123034 71 98 0.0 0.0 0.00 0.00 0.00 61 1012.8
20260905122733 71 97 0.0 0.0 0.00 0.00 0.00 60 1012.8
20260905122435 71 97 0.0 0.0 0.00 0.00 0.00 60 1012.8
20260905122136 71 97 0.0 0.0 0.00 0.00 0.00 60 1012.8
20260905121826 71 97 0.0 0.0 0.00 0.00 0.00 60 1012.8
20260905121056 71 24 0.0 0.0 0.00 0.00 0.00 61 1012.8
20260905120757 71 24 0.0 0.0 0.00 0.00 0.00 61 1012.8
20260905120457 71 24 0.0 0.0 0.00 0.00 0.00 60 1012.8
20260905115733 71 331 0.0 0.0 0.00 0.00 0.00 61 1012.7
20260905115432 71 331 0.0 0.0 0.00 0.00 0.00 61 1012.7
20260905115135 71 331 0.0 0.0 0.00 0.00 0.00 61 1012.6
20260905114823 70 313 0.0 0.0 0.00 0.00 0.00 61 1012.5
20260905114522 70 39 0.0 0.0 0.00 0.00 0.00 61 1012.5
20260905114223 70 38 0.0 0.0 0.00 0.00 0.00 61 1012.5
20260905113923 70 38 0.0 0.0 0.00 0.00 0.00 61 1012.6
20260905113617 70 38 0.0 0.0 0.00 0.00 0.00 61 1012.6
20260905112842 70 5 0.0 0.0 0.00 0.00 0.00 61 1012.5
20260905112541 70 12 0.0 0.0 0.00 0.00 0.00 61 1012.5
20260905112243 70 322 0.0 0.0 0.00 0.00 0.00 61 1012.5
20260905111935 70 0 0.0 0.0 0.00 0.00 0.00 61 1012.5
20260905111627 70 331 0.0 0.0 0.00 0.00 0.00 61 1012.5
20260905111325 70 331 0.0 0.0 0.00 0.00 0.00 61 1012.5
20260905111015 70 338 0.0 2.0 0.00 0.00 0.00 61 1012.4
20260905110719 70 319 0.0 1.0 0.00 0.00 0.00 60 1012.5
20260905110001 70 21 0.0 2.0 0.00 0.00 0.00 60 1012.4
20260905105658 70 42 0.0 2.0 0.00 0.00 0.00 60 1012.4
20260905105402 70 96 0.0 2.0 0.00 0.00 0.00 60 1012.3
20260905105055 70 25 0.0 0.0 0.00 0.00 0.00 60 1012.3
20260905104757 70 25 0.0 0.0 0.00 0.00 0.00 60 1012.4
20260905104453 70 38 0.0 0.0 0.00 0.00 0.00 60 1012.3
20260905104148 70 43 0.0 0.0 0.00 0.00 0.00 60 1012.2
20260905103850 70 89 0.0 0.0 0.00 0.00 0.00 60 1012.1
20260905103548 70 103 0.0 5.0 0.00 0.00 0.00 60 1012.1
20260905103248 70 92 0.0 3.0 0.00 0.00 0.00 60 1012.2
20260905102935 70 85 0.0 2.0 0.00 0.00 0.00 61 1012.1
20260905102634 70 92 0.0 0.0 0.00 0.00 0.00 61 1012.1
20260905100549 71 78 0.0 0.0 0.00 0.00 0.00 61 1012.0
20260905100250 71 78 0.0 0.0 0.00 0.00 0.00 61 1011.9
20260905095951 71 78 0.0 0.0 0.00 0.00 0.00 61 1012.0
20260905095643 71 79 0.0 0.0 0.00 0.00 0.00 61 1011.8
20260905094502 71 121 0.0 7.0 0.00 0.00 0.00 61 1011.9
20260905094155 71 12 0.0 7.0 0.00 0.00 0.00 61 1011.8
20260905093007 72 9 0.0 7.0 0.00 0.00 0.00 61 1011.7
20260905092700 72 189 0.0 3.0 0.00 0.00 0.00 62 1011.8
20260905091928 72 12 0.0 4.0 0.00 0.00 0.00 62 1011.9
20260905091622 72 346 0.0 4.0 0.00 0.00 0.00 62 1011.8
20260905090900 72 76 1.0 4.0 0.00 0.00 0.00 62 1011.7
20260905090552 72 95 1.0 4.0 0.00 0.00 0.00 62 1011.7
20260905090254 72 29 1.0 4.0 0.00 0.00 0.00 62 1011.6
20260905085954 73 117 1.0 3.0 0.00 0.00 0.00 63 1011.7
20260905085640 73 55 1.0 3.0 0.00 0.00 0.00 63 1011.7
20260905085327 73 90 1.0 3.0 0.00 0.00 0.00 63 1011.6
20260905085024 73 82 1.0 3.0 0.00 0.00 0.00 63 1011.5
20260905083900 73 73 0.0 3.0 0.00 0.00 0.00 64 1011.4
20260905083550 73 37 0.0 2.0 0.00 0.00 0.00 64 1011.5
20260905083251 73 48 0.0 2.0 0.00 0.00 0.00 64 1011.5
20260905082941 73 82 0.0 2.0 0.00 0.00 0.00 64 1011.4
20260905082632 73 82 0.0 2.0 0.00 0.00 0.00 64 1011.4
20260905082321 73 93 0.0 2.0 0.00 0.00 0.00 64 1011.4
20260905082016 73 64 0.0 0.0 0.00 0.00 0.00 64 1011.4
20260905081238 73 45 0.0 0.0 0.00 0.00 0.00 64 1011.5
20260905080941 73 53 0.0 0.0 0.00 0.00 0.00 64 1011.5
20260905080633 73 84 0.0 0.0 0.00 0.00 0.00 64 1011.6
20260905080334 73 90 0.0 0.0 0.00 0.00 0.00 64 1011.6
20260905080020 73 95 0.0 1.0 0.00 0.00 0.00 64 1011.6
20260905075722 73 70 0.0 1.0 0.00 0.00 0.00 64 1011.6
20260905075415 73 69 0.0 1.0 0.00 0.00 0.00 64 1011.7
20260905075105 73 128 0.0 1.0 0.00 0.00 0.00 64 1011.6
20260905074342 73 86 0.0 0.0 0.00 0.00 0.00 63 1011.7
20260905074040 73 127 0.0 0.0 0.00 0.00 0.00 63 1011.7
20260905073733 73 127 0.0 0.0 0.00 0.00 0.00 63 1011.7
20260905072156 73 183 0.0 0.0 0.00 0.00 0.00 63 1011.6
20260905071856 73 183 0.0 0.0 0.00 0.00 0.00 63 1011.7
20260905071136 73 213 0.0 0.0 0.00 0.00 0.00 63 1011.9
20260905070822 73 213 0.0 0.0 0.00 0.00 0.00 63 1011.9
20260905070516 73 213 0.0 0.0 0.00 0.00 0.00 63 1011.8
20260905070213 74 213 0.0 0.0 0.00 0.00 0.00 63 1011.8
20260905065914 74 222 0.0 0.0 0.00 0.00 0.00 63 1011.9
20260905065614 74 219 0.0 0.0 0.00 0.00 0.00 63 1011.8
20260905065311 74 228 0.0 2.0 0.00 0.00 0.00 63 1011.9
20260905065005 74 228 0.0 2.0 0.00 0.00 0.00 63 1011.9
20260905064657 74 264 0.0 2.0 0.00 0.00 0.00 63 1012.0
20260905063937 74 267 0.0 0.0 0.00 0.00 0.00 63 1012.0
20260905063634 74 209 0.0 0.0 0.00 0.00 0.00 63 1011.9
20260905062901 74 199 0.0 0.0 0.00 0.00 0.00 63 1012.1
20260905062131 74 236 0.0 0.0 0.00 0.00 0.00 63 1012.1
20260905061827 74 236 0.0 0.0 0.00 0.00 0.00 63 1012.1
20260905061514 74 208 0.0 0.0 0.00 0.00 0.00 63 1012.1
20260905061216 74 236 0.0 0.0 0.00 0.00 0.00 63 1012.0
20260905060904 74 236 0.0 0.0 0.00 0.00 0.00 63 1012.1
20260905060558 74 236 0.0 0.0 0.00 0.00 0.00 63 1012.1
20260905055832 74 236 0.0 0.0 0.00 0.00 0.00 63 1012.2
20260905055523 74 236 0.0 0.0 0.00 0.00 0.00 63 1012.2
20260905055213 74 236 0.0 0.0 0.00 0.00 0.00 63 1012.3
20260905054910 74 234 0.0 0.0 0.00 0.00 0.00 63 1012.4
20260905054600 74 234 0.0 0.0 0.00 0.00 0.00 63 1012.4
20260905054248 74 234 0.0 0.0 0.00 0.00 0.00 63 1012.3
20260905053952 74 278 0.0 0.0 0.00 0.00 0.00 63 1012.4
20260905051941 74 281 0.0 2.0 0.00 0.00 0.00 62 1012.7
20260905051635 74 306 0.0 0.0 0.00 0.00 0.00 62 1012.7
20260905051322 74 317 0.0 2.0 0.00 0.00 0.00 62 1012.7
20260905051009 74 242 0.0 0.0 0.00 0.00 0.00 62 1012.8
20260905050711 74 5 0.0 6.0 0.00 0.00 0.00 62 1012.9
20260905050405 74 63 0.0 6.0 0.00 0.00 0.00 62 1012.9
20260905050058 75 248 1.0 6.0 0.00 0.00 0.00 62 1013.0
20260905045756 74 13 1.0 6.0 0.00 0.00 0.00 63 1013.0
20260905045456 75 334 1.0 5.0 0.00 0.00 0.00 63 1013.0
20260905045158 74 293 0.0 5.0 0.00 0.00 0.00 63 1013.1
20260905044434 74 16 0.0 3.0 0.00 0.00 0.00 63 1013.0
20260905044136 74 0 0.0 3.0 0.00 0.00 0.00 63 1013.0
20260905043839 74 21 0.0 2.0 0.00 0.00 0.00 63 1012.9
20260905043532 74 18 0.0 2.0 0.00 0.00 0.00 63 1012.8
20260905043233 74 292 0.0 2.0 0.00 0.00 0.00 63 1012.9
20260905042923 74 325 0.0 0.0 0.00 0.00 0.00 63 1012.8
20260905042626 74 325 0.0 0.0 0.00 0.00 0.00 63 1012.8
20260905042326 74 202 0.0 0.0 0.00 0.00 0.00 63 1012.8
20260905042022 74 201 0.0 0.0 0.00 0.00 0.00 63 1012.8
20260905041721 74 202 0.0 0.0 0.00 0.00 0.00 63 1012.7
20260905041417 74 202 0.0 0.0 0.00 0.00 0.00 63 1012.7
20260905041120 74 200 0.0 0.0 0.00 0.01 0.00 63 1012.8
20260905040820 74 190 0.0 0.0 0.00 0.01 0.00 63 1012.9
20260905040512 74 190 0.0 0.0 0.00 0.01 0.00 63 1012.8
20260905040159 74 221 0.0 0.0 0.00 0.01 0.00 63 1012.8
20260905035853 74 177 0.0 0.0 0.00 0.01 0.01 63 1012.9
20260905035542 74 199 0.0 0.0 0.00 0.01 0.01 63 1012.9
20260905035242 74 174 0.0 0.0 0.00 0.01 0.01 63 1012.9
20260905034929 74 174 0.0 0.0 0.00 0.01 0.01 63 1012.9
20260905034632 74 174 0.0 0.0 0.00 0.01 0.01 63 1013.0
20260905034319 74 159 0.0 0.0 0.00 0.01 0.01 63 1013.0
20260905034006 74 130 0.0 0.0 0.00 0.01 0.01 63 1012.9
20260905033703 74 105 0.0 0.0 0.00 0.01 0.01 63 1012.8
20260905033359 74 105 0.0 0.0 0.00 0.01 0.01 63 1012.8
20260905033058 74 105 0.0 0.0 0.00 0.01 0.01 63 1012.7
20260905032745 74 202 0.0 0.0 0.00 0.01 0.01 63 1012.8
20260905032433 74 195 0.0 0.0 0.00 0.01 0.01 63 1012.8
20260905032126 74 190 0.0 0.0 0.00 0.01 0.01 63 1012.7
20260905031816 74 181 0.0 0.0 0.00 0.01 0.01 63 1012.6
20260905031517 74 196 0.0 0.0 0.00 0.02 0.01 63 1012.6
20260905031217 74 184 0.0 0.0 0.00 0.02 0.01 63 1012.6
20260905030907 74 210 0.0 0.0 0.00 0.02 0.01 63 1012.5
20260905030604 74 210 0.0 0.0 0.00 0.02 0.01 63 1012.5
20260905030301 74 215 0.0 0.0 0.00 0.02 0.01 63 1012.4
20260905025953 74 215 0.0 0.0 0.00 0.02 0.01 63 1012.5
20260905025640 74 215 0.0 0.0 0.00 0.02 0.01 63 1012.6
20260905025327 74 215 0.0 0.0 0.00 0.02 0.01 63 1012.5
20260905025017 74 215 0.0 0.0 0.00 0.02 0.01 63 1012.5
20260905023833 74 215 0.0 0.0 0.00 0.02 0.01 63 1012.3
20260905023520 74 215 0.0 0.0 0.00 0.02 0.01 63 1012.4
20260905023223 74 215 0.0 0.0 0.00 0.02 0.01 63 1012.4
20260905022917 75 215 0.0 0.0 0.00 0.02 0.01 63 1012.4
20260905022619 75 215 0.0 0.0 0.00 0.02 0.01 63 1012.3
20260905022321 75 215 0.0 0.0 0.00 0.02 0.01 63 1012.3
20260905022020 75 205 0.0 0.0 0.00 0.02 0.01 63 1012.4
20260905021723 75 205 0.0 0.0 0.00 0.02 0.01 63 1012.2
20260905021422 75 225 0.0 0.0 0.00 0.02 0.01 63 1012.2
20260905021115 75 225 0.0 0.0 0.00 0.02 0.01 63 1012.1
20260905020809 75 225 0.0 0.0 0.00 0.02 0.01 63 1012.2
20260905020034 75 225 0.0 0.0 0.00 0.02 0.01 63 1012.2
20260905015737 75 225 0.0 0.0 0.00 0.04 0.01 63 1012.1
20260905015013 76 225 0.0 0.0 0.00 0.04 0.01 63 1012.3
20260905014241 76 225 0.0 0.0 0.00 0.04 0.01 63 1012.4
20260905013932 76 225 0.0 0.0 0.00 0.04 0.01 63 1012.4
20260905013623 76 225 0.0 0.0 0.00 0.05 0.01 63 1012.2
20260905013325 76 225 0.0 0.0 0.00 0.05 0.01 63 1012.2
20260905013014 76 225 0.0 0.0 0.00 0.05 0.01 63 1012.2
20260905012703 77 225 0.0 0.0 0.00 0.05 0.01 63 1012.2
20260905012350 77 225 0.0 0.0 0.00 0.06 0.01 63 1012.1
20260905011622 77 232 0.0 0.0 0.00 0.06 0.01 63 1012.1
20260905011311 77 232 0.0 0.0 0.00 0.06 0.01 63 1012.2
20260905010547 77 241 0.0 0.0 0.00 0.06 0.01 63 1012.1
20260905010243 77 241 0.0 0.0 0.00 0.06 0.01 63 1012.1
20260905005938 78 241 0.0 0.0 0.00 0.06 0.01 63 1012.1
20260905005625 78 241 0.0 0.0 0.00 0.06 0.01 63 1012.1
20260905005321 78 261 0.0 0.0 0.00 0.06 0.01 63 1012.1
20260905005016 78 261 0.0 0.0 0.00 0.06 0.01 63 1012.1
20260905004717 78 261 0.0 0.0 0.00 0.06 0.01 62 1012.1
20260905004406 78 260 0.0 0.0 0.00 0.06 0.01 62 1012.2
20260905004056 78 267 0.0 0.0 0.00 0.06 0.01 62 1012.2
20260905003743 78 267 0.0 0.0 0.00 0.06 0.01 62 1012.1
20260905003439 78 267 0.0 0.0 0.00 0.06 0.01 62 1012.2
20260905002700 79 267 0.0 0.0 0.00 0.06 0.01 62 1012.1
20260905002402 79 267 0.0 0.0 0.00 0.06 0.01 61 1011.9
20260905002052 79 267 0.0 0.0 0.00 0.06 0.01 61 1011.8
20260905001321 79 267 0.0 0.0 0.00 0.06 0.01 61 1011.8
20260905000555 80 267 0.0 0.0 0.00 0.06 0.01 60 1011.9
20260905000252 80 267 0.0 0.0 0.00 0.06 0.01 60 1011.8
20260904235954 80 267 0.0 0.0 0.00 0.06 0.01 60 1011.8
20260904235643 80 267 0.0 0.0 0.00 0.06 0.01 60 1011.9
20260904235340 80 267 0.0 0.0 0.00 0.06 0.01 60 1011.8
20260904235041 80 267 0.0 0.0 0.00 0.06 0.01 60 1011.7
20260904234731 80 295 0.0 0.0 0.00 0.06 0.01 60 1011.8
20260904234435 80 295 0.0 0.0 0.00 0.06 0.01 60 1011.8
20260904234124 80 289 0.0 0.0 0.00 0.06 0.01 60 1011.8
20260904233819 80 292 0.0 0.0 0.00 0.06 0.01 59 1011.7
20260904233043 81 242 0.0 0.0 0.00 0.06 0.01 59 1011.9
20260904231922 81 234 0.0 0.0 0.00 0.06 0.01 59 1011.7
20260904231621 81 302 0.0 0.0 0.00 0.06 0.01 59 1011.8
20260904231315 81 287 0.0 0.0 0.00 0.06 0.01 58 1011.8
20260904231006 81 287 0.0 2.0 0.00 0.06 0.01 58 1011.9
20260904230654 81 292 0.0 0.0 0.00 0.06 0.01 58 1011.9
20260904230347 81 266 0.0 0.0 0.00 0.06 0.01 58 1011.8
20260904230035 81 281 0.0 0.0 0.00 0.06 0.01 57 1011.8
20260904225723 82 281 0.0 0.0 0.00 0.06 0.01 57 1011.8
20260904225423 82 266 0.0 0.0 0.00 0.06 0.01 57 1011.9
20260904224701 82 284 0.0 5.0 0.00 0.06 0.01 56 1011.8
20260904224356 82 229 0.0 0.0 0.00 0.06 0.01 56 1011.8
20260904224044 82 229 0.0 0.0 0.00 0.06 0.01 56 1011.9
20260904223735 82 229 0.0 0.0 0.00 0.06 0.01 56 1011.8
20260904223429 83 277 0.0 1.0 0.00 0.06 0.01 55 1011.8
20260904222238 83 278 0.0 2.0 0.00 0.06 0.01 55 1011.9
20260904221925 83 304 0.0 2.0 0.00 0.06 0.01 54 1011.8
20260904221611 83 217 0.0 3.0 0.00 0.06 0.01 53 1011.7
20260904221313 83 322 0.0 3.0 0.00 0.06 0.01 54 1011.8
20260904221007 83 299 0.0 2.0 0.00 0.06 0.01 54 1011.8
20260904220700 84 288 0.0 0.0 0.00 0.06 0.01 53 1011.8
20260904220359 84 194 1.0 5.0 0.00 0.06 0.01 53 1011.8
20260904220055 84 277 1.0 5.0 0.00 0.06 0.01 52 1011.8
20260904215751 84 309 1.0 5.0 0.00 0.06 0.01 54 1011.7
20260904215449 84 342 1.0 5.0 0.00 0.06 0.01 53 1011.9
20260904215139 85 294 1.0 5.0 0.00 0.06 0.01 53 1011.9
20260904214826 85 44 1.0 5.0 0.00 0.06 0.01 53 1012.1
20260904214520 85 304 1.0 5.0 0.00 0.06 0.01 53 1012.0
20260904214221 85 5 1.0 4.0 0.00 0.06 0.01 52 1012.0
20260904213912 85 0 1.0 7.0 0.00 0.06 0.01 50 1012.2
20260904213606 85 53 1.0 7.0 0.00 0.06 0.01 52 1012.2
20260904213255 85 13 0.0 7.0 0.00 0.06 0.01 51 1012.3
20260904212956 85 291 1.0 7.0 0.00 0.06 0.01 51 1012.2
20260904212652 85 5 1.0 7.0 0.00 0.06 0.01 52 1012.3
20260904212344 85 248 2.0 7.0 0.00 0.06 0.01 52 1012.5
20260904212035 85 286 1.0 7.0 0.00 0.06 0.01 53 1012.4
20260904211731 85 312 1.0 4.0 0.00 0.06 0.01 52 1012.4
20260904211426 85 259 1.0 4.0 0.00 0.06 0.01 53 1012.4
20260904211117 85 0 0.0 4.0 0.00 0.06 0.01 51 1012.3
20260904205938 85 212 0.0 2.0 0.00 0.06 0.01 51 1012.3
20260904205634 85 215 0.0 2.0 0.00 0.06 0.01 51 1012.3
20260904205329 85 288 0.0 2.0 0.00 0.06 0.01 50 1012.3
20260904205016 86 302 0.0 2.0 0.00 0.06 0.01 51 1012.2
20260904204711 86 80 1.0 7.0 0.00 0.06 0.01 50 1012.1
20260904204408 86 178 1.0 7.0 0.00 0.06 0.01 48 1012.2
20260904203649 87 350 2.0 7.0 0.00 0.06 0.01 47 1012.2
20260904203344 87 334 2.0 6.0 0.00 0.06 0.01 50 1012.1
20260904203046 87 270 1.0 7.0 0.00 0.06 0.01 48 1012.1
20260904202741 87 274 1.0 7.0 0.00 0.06 0.01 50 1012.1
20260904202428 87 63 1.0 7.0 0.00 0.06 0.01 49 1012.1
20260904202121 87 66 2.0 7.0 0.00 0.06 0.01 50 1012.2
20260904201810 87 118 2.0 7.0 0.00 0.06 0.01 51 1012.3
20260904201457 87 295 2.0 7.0 0.00 0.06 0.01 50 1012.4
20260904201150 86 270 2.0 4.0 0.00 0.06 0.01 49 1012.5
20260904200427 87 24 1.0 4.0 0.00 0.06 0.01 49 1012.4
20260904200121 87 309 0.0 4.0 0.00 0.06 0.01 50 1012.4
20260904195820 87 316 1.0 4.0 0.00 0.06 0.01 48 1012.4
20260904195054 87 19 1.0 4.0 0.00 0.06 0.01 47 1012.4
20260904194741 87 80 1.0 4.0 0.00 0.06 0.01 49 1012.4
20260904194445 87 172 0.0 3.0 0.00 0.06 0.01 51 1012.4
20260904193729 86 92 1.0 3.0 0.00 0.06 0.01 47 1012.6
20260904193417 86 315 1.0 3.0 0.00 0.06 0.01 48 1012.7
20260904192700 86 25 0.0 9.0 0.00 0.06 0.01 51 1012.6
20260904191930 86 13 1.0 9.0 0.00 0.06 0.01 49 1012.7
20260904191623 86 5 2.0 9.0 0.00 0.06 0.01 48 1012.8